Location: Unspecified
(0.0000°N, 0.0000°E)
Time: 07:54:24
(UTC+00:00)

Vanguard 2 - All Passes

Search period start: 13 October 2024 00:00
Search period end: 23 October 2024 00:00
Orbit: 552 x 2910 km, 32.9° (Epoch: 12 October)

Date Brightness Start Highest point End Pass type
(mag) Time Alt. Az. Time Alt. Az. Time Alt. Az.
13 Oct - 00:42:31 10° N 00:44:47 13° NNE 00:46:51 10° ENE night (unlit)
13 Oct - 02:49:00 10° WNW 02:52:52 53° SW 02:57:06 10° SE visible
13 Oct - 09:26:24 10° SSE 09:28:31 10° SSE 09:30:46 10° SSE daylight
13 Oct - 11:29:55 10° SSW 11:42:07 34° SE 11:57:03 10° E daylight
13 Oct - 13:38:30 10° SW 13:55:01 80° SE 14:12:12 10° ENE daylight
13 Oct - 15:51:19 10° WSW 16:07:56 47° NW 16:22:02 10° NE daylight
13 Oct - 18:12:15 10° WNW 18:21:06 17° NNW 18:28:27 10° N visible
14 Oct - 00:55:06 10° NNW 00:58:51 23° NNE 01:02:04 10° E night (unlit)
14 Oct - 03:03:18 10° W 03:06:45 28° SSW 03:10:29 10° SSE visible
14 Oct - 09:37:56 10° S 09:43:19 14° SSE 09:49:35 10° SE daylight
14 Oct - 11:43:15 10° SSW 11:56:14 42° SE 12:12:21 10° E daylight
14 Oct - 13:52:22 10° SW 14:08:58 86° NW 14:26:10 10° NE daylight
14 Oct - 16:06:23 10° W 16:22:03 38° NW 16:35:25 10° NNE daylight
14 Oct - 18:29:44 10° NW 18:35:52 13° NNW 18:41:11 10° N visible
15 Oct - 01:08:21 10° NW 01:12:48 41° NNE 01:16:33 10° ESE night (unlit)
15 Oct - 03:18:12 10° WSW 03:20:42 16° SSW 03:23:21 10° S visible
15 Oct - 09:50:33 10° S 09:57:52 18° SSE 10:06:56 10° ESE daylight
15 Oct - 11:56:39 10° SW 12:10:13 52° SE 12:27:13 10° ENE daylight
15 Oct - 14:06:25 10° WSW 14:22:57 72° NW 14:39:57 10° NE daylight
15 Oct - 16:21:51 10° W 16:36:20 31° NNW 16:48:45 10° NNE daylight
15 Oct - 18:48:14 10° NNW 18:50:50 11° NNW 18:53:14 10° N visible
15 Oct - 23:15:17 10° N 23:17:39 12° NNE 23:19:43 10° NE night (unlit)
16 Oct - 01:21:59 10° NW 01:26:38 81° NNE 01:30:34 10° ESE night (unlit)
16 Oct - 10:03:26 10° SSW 10:12:11 23° SE 10:23:32 10° E daylight
16 Oct - 12:10:10 10° SW 12:24:09 64° SE 12:41:45 10° ENE daylight
16 Oct - 14:20:42 10° WSW 14:36:59 59° NW 14:53:35 10° NE daylight
16 Oct - 16:37:47 10° WNW 16:50:48 25° NNW 17:02:02 10° NNE daylight
16 Oct - 23:27:35 10° NNW 23:31:57 19° NNE 23:35:22 10° ENE night (unlit)
17 Oct - 01:35:56 10° WNW 01:40:25 51° SW 01:44:16 10° SE night (unlit)
17 Oct - 10:16:30 10° SSW 10:26:17 30° SE 10:39:30 10° E daylight
17 Oct - 12:23:48 10° SW 12:38:02 78° SE 12:56:00 10° ENE daylight
17 Oct - 14:35:16 10° WSW 14:51:06 49° NNW 15:07:06 10° NE daylight
17 Oct - 16:54:12 10° WNW 17:05:29 20° NNW 17:15:20 10° NNE daylight
17 Oct - 23:40:37 10° NNW 23:46:08 30° NNE 23:50:07 10° E night (unlit)
18 Oct - 01:50:19 10° W 01:54:09 27° SW 01:57:35 10° SSE night (unlit)
18 Oct - 10:29:41 10° SSW 10:40:13 38° SE 10:54:56 10° E daylight
18 Oct - 12:37:36 10° SW 12:51:56 87° NW 13:10:00 10° NE daylight
18 Oct - 14:50:10 10° W 15:05:21 40° NNW 15:20:33 10° NNE daylight
18 Oct - 17:11:01 10° NW 17:20:25 17° NNW 17:28:41 10° NNE daylight
18 Oct - 21:46:04 10° NNW 21:49:57 13° NNE 21:53:10 10° NE visible
18 Oct - 23:54:01 10° NW 00:00:09 50° NNE 00:04:25 10° ESE night (unlit)
19 Oct - 02:05:20 10° WSW 02:07:55 15° SW 02:10:20 10° S night (unlit)
19 Oct - 08:38:57 10° S 08:43:07 13° SE 08:48:02 10° ESE daylight
19 Oct - 10:42:59 10° SW 10:54:03 49° SE 11:09:55 10° ENE daylight
19 Oct - 12:51:35 10° WSW 13:05:55 72° NW 13:23:49 10° NE daylight
19 Oct - 15:05:26 10° W 15:19:47 32° NNW 15:33:58 10° NNE daylight
19 Oct - 17:28:03 10° NW 17:35:33 14° NNW 17:42:14 10° NNE daylight
19 Oct - 21:58:35 10° NNW 22:04:27 19° NNE 22:08:49 10° ENE visible
20 Oct - 00:07:43 10° NW 00:14:01 86° NE 00:18:21 10° ESE night (unlit)
20 Oct - 08:51:07 10° S 08:57:16 18° SE 09:05:15 10° ESE daylight
20 Oct - 10:56:25 10° SW 11:07:49 61° SE 11:24:31 10° ENE daylight
20 Oct - 13:05:47 10° WSW 13:20:00 59° NNW 13:37:29 10° NE daylight
20 Oct - 15:21:07 10° WNW 15:34:25 27° NNW 15:47:23 10° NNE daylight
20 Oct - 17:44:54 10° NNW 17:50:50 13° N 17:56:11 10° NNE daylight
20 Oct - 20:02:39 10° NNW 20:06:34 12° N 20:09:59 10° NNE visible
20 Oct - 22:11:36 10° NNW 22:18:49 27° NNE 22:23:45 10° E visible
21 Oct - 00:21:43 10° WNW 00:27:45 54° SW 00:31:58 10° SE night (unlit)
21 Oct - 09:03:50 10° SSW 09:11:12 25° SE 09:21:28 10° E daylight
21 Oct - 11:10:00 10° SW 11:21:36 76° SE 11:38:49 10° ENE daylight
21 Oct - 13:20:14 10° W 13:34:12 48° NNW 13:51:01 10° NE daylight
21 Oct - 15:37:11 10° WNW 15:49:16 22° NNW 16:00:52 10° NNE daylight
21 Oct - 18:00:58 10° NNW 18:06:12 12° N 18:10:55 10° NNE visible
21 Oct - 20:15:15 10° NNW 20:21:26 15° NNE 20:26:21 10° NE visible
21 Oct - 22:24:53 10° NW 22:33:01 40° NNE 22:38:14 10° E night (unlit)
22 Oct - 00:36:07 10° WNW 00:41:23 31° SW 00:45:18 10° SSE night (unlit)
22 Oct - 09:16:49 10° SSW 09:24:59 33° SE 09:37:03 10° E daylight
22 Oct - 11:23:43 10° SW 11:35:27 87° NW 11:52:51 10° NE daylight
22 Oct - 13:35:00 10° W 13:48:33 39° NNW 14:04:29 10° NE daylight
22 Oct - 15:53:36 10° NW 16:04:21 19° NNW 16:14:31 10° NNE daylight
22 Oct - 18:15:51 10° NNW 18:21:33 13° N 18:26:34 10° NNE visible
22 Oct - 20:28:12 10° NNW 20:36:08 20° NNE 20:41:57 10° ENE visible
22 Oct - 22:38:25 10° NW 22:47:05 59° NNE 22:52:23 10° ESE night (unlit)
